This is the latest recevied weather packets stored in our database for station/object S56VIL-11. If no packets are shown the sender has not sent any weather packets the latest 10 day(s).
| Time | Temp. | Humidity | Pressure | Rain* | Wind** | Luminosity | Snow |
|---|---|---|---|---|---|---|---|
| 1777662625 | 11.11° C | 54% | 1036.9 hPa | - | - | - | - |
| 1777661725 | 11.11° C | 54% | 1036.6 hPa | - | - | - | - |
| 1777660825 | 11.11° C | 53% | 1036.5 hPa | - | - | - | - |
| 1777659925 | 11.67° C | 53% | 1036.2 hPa | - | - | - | - |
| 1777659025 | 11.67° C | 54% | 1036.1 hPa | - | - | - | - |
| 1777658125 | 12.22° C | 53% | 1035.9 hPa | - | - | - | - |
| 1777657225 | 12.78° C | 53% | 1035.9 hPa | - | - | - | - |
| 1777656324 | 13.33° C | 53% | 1035.8 hPa | - | - | - | - |
| 1777655424 | 15° C | 53% | 1035.7 hPa | - | - | - | - |
| 1777654524 | 16.67° C | 53% | 1035.6 hPa | - | - | - | - |
| 1777653624 | 20° C | 53% | 1035.5 hPa | - | - | - | - |
| 1777652724 | 22.22° C | 52% | 1035.5 hPa | - | - | - | - |
| 1777651824 | 22.78° C | 52% | 1035.4 hPa | - | - | - | - |
| 1777650924 | 20.56° C | 52% | 1035.4 hPa | - | - | - | - |
| 1777650024 | 20.56° C | 52% | 1035.5 hPa | - | - | - | - |
| 1777649124 | 18.89° C | 52% | 1035.6 hPa | - | - | - | - |
| 1777648224 | 17.78° C | 52% | 1035.7 hPa | - | - | - | - |
| 1777647324 | 17.22° C | 52% | 1035.8 hPa | - | - | - | - |
| 1777646424 | 17.78° C | 52% | 1035.8 hPa | - | - | - | - |
| 1777645530 | 18.33° C | 52% | 1035.8 hPa | - | - | - | - |
| 1777644624 | 21.67° C | 52% | 1035.7 hPa | - | - | - | - |
| 1777643724 | 21.11° C | 53% | 1035.8 hPa | - | - | - | - |
| 1777642824 | 18.33° C | 53% | 1036 hPa | - | - | - | - |
| 1777641924 | 17.78° C | 52% | 1036.1 hPa | - | - | - | - |
| 1777641024 | 18.33° C | 51% | 1036.2 hPa | - | - | - | - |
* Rain since midnight (hover to see other rain measurements)
** Current wind speed in m/s (hover to see current wind gust speed)